• In Uzbekistan
  • List of Countries
  • For 7 days
  • Water Temperature
  • Satellite Maps
  • Weather Map
  • Weather Widgets
  • user-avatar
    Login

    Hourly Weather Ouahigouya

    Today, 26 April, Friday

    Time Temperature Precipitation Wind Pressure Humidity
    00:00 +39°C° 0 mm 1 mps 728 mmHg 25%
    01:00 +39°C° 0 mm 1 mps 728 mmHg 25%
    02:00 +37°C° 0 mm 1 mps 728 mmHg 26%
    03:00 +37°C° 0 mm 1 mps 728 mmHg 26%
    04:00 +36°C° 0 mm 1 mps 728 mmHg 26%
    05:00 +37°C° 0 mm 2 mps 728 mmHg 27%
    06:00 +36°C° 0 mm 3 mps 728 mmHg 27%
    07:00 +38°C° 0 mm 4 mps 728 mmHg 24%
    08:00 +40°C° 0 mm 5 mps 729 mmHg 22%
    09:00 +42°C° 0 mm 6 mps 729 mmHg 20%
    10:00 +44°C° 0 mm 6 mps 729 mmHg 17%
    11:00 +45°C° 0 mm 6 mps 728 mmHg 14%
    12:00 +46°C° 0 mm 6 mps 728 mmHg 12%
    13:00 +47°C° 0 mm 6 mps 728 mmHg 10%
    14:00 +47°C° 0 mm 6 mps 727 mmHg 9%
    15:00 +48°C° 0 mm 6 mps 726 mmHg 8%
    16:00 +47°C° 0 mm 5 mps 726 mmHg 8%
    17:00 +47°C° 0 mm 5 mps 726 mmHg 8%
    18:00 +45°C° 0 mm 4 mps 726 mmHg 8%
    19:00 +44°C° 0 mm 4 mps 726 mmHg 9%
    20:00 +43°C° 0 mm 3 mps 726 mmHg 10%
    21:00 +42°C° 0 mm 3 mps 727 mmHg 11%
    22:00 +40°C° 0 mm 3 mps 727 mmHg 10%
    23:00 +40°C° 0 mm 4 mps 727 mmHg 10%

    Tomorrow, 27 April, Saturday

    Time Temperature Precipitation Wind Pressure Humidity
    00:00 +40°C° 0 mm 4 mps 727 mmHg 10%
    01:00 +38°C° 0 mm 4 mps 726 mmHg 9%
    02:00 +37°C° 0 mm 4 mps 726 mmHg 9%
    03:00 +37°C° 0 mm 4 mps 726 mmHg 9%
    04:00 +36°C° 0 mm 3 mps 726 mmHg 10%
    05:00 +35°C° 0 mm 3 mps 726 mmHg 11%
    06:00 +34°C° 0 mm 3 mps 726 mmHg 11%
    07:00 +36°C° 0 mm 5 mps 727 mmHg 11%
    08:00 +39°C° 0 mm 6 mps 727 mmHg 12%
    09:00 +41°C° 0 mm 8 mps 728 mmHg 12%
    10:00 +44°C° 0 mm 8 mps 728 mmHg 10%
    11:00 +45°C° 0 mm 7 mps 727 mmHg 8%
    12:00 +47°C° 0 mm 7 mps 727 mmHg 6%
    13:00 +48°C° 0 mm 6 mps 726 mmHg 6%
    14:00 +48°C° 0 mm 6 mps 726 mmHg 6%
    15:00 +48°C° 0 mm 5 mps 725 mmHg 6%
    16:00 +48°C° 0 mm 5 mps 725 mmHg 6%
    17:00 +47°C° 0 mm 4 mps 725 mmHg 6%
    18:00 +46°C° 0 mm 3 mps 725 mmHg 6%
    19:00 +44°C° 0 mm 3 mps 725 mmHg 7%
    20:00 +42°C° 0 mm 2 mps 726 mmHg 8%
    21:00 +41°C° 0 mm 2 mps 726 mmHg 9%
    22:00 +40°C° 0 mm 1 mps 726 mmHg 11%
    23:00 +39°C° 0 mm 1 mps 726 mmHg 13%

    Day after tomorrow, 28 April, Sunday

    Time Temperature Precipitation Wind Pressure Humidity
    00:00 +34°C° 0 mm 0 mps 726 mmHg 15%
    01:00 +36°C° 0 mm 1 mps 726 mmHg 16%
    02:00 +37°C° 0 mm 2 mps 726 mmHg 17%
    03:00 +37°C° 0 mm 3 mps 726 mmHg 17%
    04:00 +36°C° 0 mm 3 mps 726 mmHg 17%
    05:00 +35°C° 0 mm 3 mps 726 mmHg 16%
    06:00 +34°C° 0 mm 3 mps 726 mmHg 15%
    07:00 +36°C° 0 mm 4 mps 727 mmHg 14%
    08:00 +39°C° 0 mm 5 mps 728 mmHg 13%
    09:00 +40°C° 0 mm 6 mps 728 mmHg 12%
    10:00 +42°C° 0 mm 5 mps 728 mmHg 11%
    11:00 +43°C° 0 mm 5 mps 728 mmHg 10%
    12:00 +45°C° 0 mm 4 mps 728 mmHg 9%
    13:00 +45°C° 0 mm 4 mps 727 mmHg 9%
    14:00 +46°C° 0 mm 3 mps 726 mmHg 8%
    15:00 +47°C° 0 mm 3 mps 725 mmHg 8%
    16:00 +46°C° 0 mm 3 mps 725 mmHg 8%
    17:00 +46°C° 0 mm 3 mps 725 mmHg 8%
    18:00 +46°C° 0 mm 3 mps 725 mmHg 8%
    19:00 +45°C° 0 mm 2 mps 726 mmHg 9%
    20:00 +42°C° 0 mm 2 mps 726 mmHg 10%
    21:00 +41°C° 0 mm 2 mps 727 mmHg 10%
    22:00 +41°C° 0 mm 2 mps 727 mmHg 10%
    23:00 +40°C° 0 mm 2 mps 727 mmHg 11%

    29 April, Monday

    Time Temperature Precipitation Wind Pressure Humidity
    00:00 +39°C° 0 mm 2 mps 727 mmHg 11%
    01:00 +38°C° 0 mm 2 mps 726 mmHg 12%
    02:00 +38°C° 0 mm 2 mps 726 mmHg 14%
    03:00 +37°C° 0 mm 2 mps 725 mmHg 15%
    04:00 +36°C° 0 mm 3 mps 726 mmHg 22%
    05:00 +36°C° 0 mm 3 mps 726 mmHg 28%
    06:00 +35°C° 0 mm 3 mps 726 mmHg 35%
    07:00 +37°C° 0 mm 4 mps 727 mmHg 35%
    08:00 +39°C° 0 mm 5 mps 728 mmHg 35%
    09:00 +41°C° 0 mm 5 mps 728 mmHg 35%
    10:00 +42°C° 0 mm 4 mps 728 mmHg 29%
    11:00 +43°C° 0 mm 3 mps 728 mmHg 23%
    12:00 +43°C° 0 mm 2 mps 728 mmHg 18%
    13:00 +45°C° 0 mm 2 mps 727 mmHg 15%
    14:00 +46°C° 0 mm 3 mps 726 mmHg 12%
    15:00 +47°C° 0 mm 3 mps 725 mmHg 10%
    16:00 +46°C° 0 mm 3 mps 725 mmHg 9%
    17:00 +46°C° 0 mm 3 mps 725 mmHg 8%
    18:00 +46°C° 0 mm 3 mps 725 mmHg 7%
    19:00 +45°C° 0 mm 3 mps 726 mmHg 7%
    20:00 +44°C° 0 mm 3 mps 726 mmHg 7%
    21:00 +43°C° 0 mm 3 mps 727 mmHg 7%
    22:00 +42°C° 0 mm 3 mps 727 mmHg 8%
    23:00 +40°C° 0 mm 3 mps 726 mmHg 9%

    30 April, Tuesday

    Time Temperature Precipitation Wind Pressure Humidity
    00:00 +39°C° 0 mm 2 mps 726 mmHg 10%
    01:00 +38°C° 0 mm 3 mps 726 mmHg 16%
    02:00 +37°C° 0 mm 3 mps 726 mmHg 22%
    03:00 +37°C° 0 mm 3 mps 725 mmHg 28%
    04:00 +36°C° 0 mm 2 mps 726 mmHg 32%
    05:00 +36°C° 0 mm 2 mps 727 mmHg 36%
    06:00 +34°C° 0 mm 1 mps 727 mmHg 40%
    07:00 +37°C° 0 mm 2 mps 728 mmHg 39%
    08:00 +38°C° 0 mm 3 mps 729 mmHg 38%
    09:00 +40°C° 0 mm 5 mps 729 mmHg 38%
    10:00 +41°C° 0 mm 4 mps 729 mmHg 33%
    11:00 +42°C° 0 mm 3 mps 729 mmHg 27%
    12:00 +42°C° 0 mm 2 mps 728 mmHg 22%
    13:00 +43°C° 0 mm 1 mps 727 mmHg 20%
    14:00 +44°C° 0 mm 1 mps 727 mmHg 17%
    15:00 +45°C° 0 mm 1 mps 726 mmHg 14%
    16:00 +45°C° 0 mm 2 mps 726 mmHg 13%
    17:00 +45°C° 0 mm 2 mps 726 mmHg 12%
    18:00 +45°C° 0 mm 3 mps 726 mmHg 11%
    19:00 +43°C° 0 mm 2 mps 726 mmHg 13%
    20:00 +42°C° 0 mm 2 mps 726 mmHg 14%
    21:00 +41°C° 0 mm 1 mps 726 mmHg 16%
    22:00 +40°C° 0 mm 2 mps 726 mmHg 21%
    23:00 +40°C° 0 mm 3 mps 726 mmHg 26%

    1 May, Wednesday

    Time Temperature Precipitation Wind Pressure Humidity
    00:00 +40°C° 0 mm 4 mps 726 mmHg 31%
    01:00 +38°C° 0 mm 4 mps 726 mmHg 36%
    02:00 +37°C° 0 mm 5 mps 726 mmHg 41%
    03:00 +38°C° 0 mm 6 mps 726 mmHg 46%
    04:00 +36°C° 0 mm 5 mps 726 mmHg 48%
    05:00 +36°C° 0 mm 4 mps 727 mmHg 49%
    06:00 +35°C° 0 mm 4 mps 727 mmHg 51%
    07:00 +36°C° 0 mm 4 mps 728 mmHg 47%
    08:00 +39°C° 0 mm 5 mps 728 mmHg 44%
    09:00 +40°C° 0 mm 5 mps 729 mmHg 40%
    10:00 +41°C° 0 mm 5 mps 729 mmHg 36%
    11:00 +42°C° 0 mm 5 mps 728 mmHg 32%
    12:00 +43°C° 0 mm 4 mps 728 mmHg 28%
    13:00 +44°C° 0 mm 3 mps 727 mmHg 26%
    14:00 +43°C° 0 mm 2 mps 726 mmHg 24%
    15:00 +43°C° 0 mm 2 mps 725 mmHg 22%
    16:00 +43°C° 0 mm 1 mps 726 mmHg 22%
    17:00 +43°C° 0 mm 1 mps 726 mmHg 22%
    18:00 +43°C° 0 mm 1 mps 726 mmHg 22%
    19:00 +42°C° 0 mm 1 mps 726 mmHg 23%
    20:00 +42°C° 0 mm 2 mps 726 mmHg 24%
    21:00 +41°C° 0 mm 2 mps 727 mmHg 25%
    22:00 +40°C° 0 mm 2 mps 726 mmHg 26%
    23:00 +40°C° 0 mm 2 mps 726 mmHg 27%
    Show more